Tracking 30703 objects as of 12-Jun-2025
HD Live streaming from Space Station
objects crossing your sky now

SAKURA 2A (CS-2A)

Track SAKURA 2A (CS-2A) now!
SAKURA 2A (CS-2A) is classified as:


NORAD ID: 13782
Int'l Code: 1983-006A
Perigee: 36,000.9 km
Apogee: 36,076.9 km
Inclination: 10.9 °
Period: 1,448.6 minutes
Semi major axis: 42409 km
RCS: 5.8102 m2 (large)
Launch date: February 4, 1983
Source: Japan (JPN)
Launch site: TANEGASHIMA SPACE CENTER (TNSTA)
Your satellite tracking list
Your tracking list is empty




NASA's NSSDC Master Catalog

Two Line Element Set (TLE):
1 13782U 83006A   25162.52058894  .00000115  00000-0  00000-0 0  9992
2 13782  10.8936 322.8648 0008959 319.3873 217.1522  0.99403496124166
Source of the keplerian elements: AFSPC